(289558) = 2005 ES265 = 2010 FB17

Discovered at Catalina on 2005-03-13 by CSS.

Orbit

Orbit type: Main Belt

Note: WebGL enabled browser required.

epoch2024-03-31.0
epoch JD2460400.5
perihelion date2020-10-01.28151
perihelion JD2459123.78151
argument of perihelion (°)65.36521
ascending node (°)196.01395
inclination (°)11.93124
eccentricity0.1277797
perihelion distance (AU)2.5106569
Tisserand w.r.t. Jupiter3.3
ΔV w.r.t. Earth (km/sec)10.6
semimajor axis (AU)2.8784664
mean anomaly (°)257.66608
mean daily motion (°/day)0.20181900
aphelion distance (AU)3.246
period (years)4.88
P-vector [x]-0.15531237
P-vector [y]-0.96454928
P-vector [z]-0.21336064
Q-vector [x]0.98621768
Q-vector [y]-0.16386304
Q-vector [z]0.02288229
absolute magnitude16.26
phase slope0.15
uncertainty0
referenceMPEC 2024-E23
observations used510
oppositions17
arc length (days)11473
first opposition used1992
last opposition used2024
residual rms (arc-secs)0.74
perturbers coarse indicatorM-v
perturbers precise indicator003Ek
first observation date used1992-10-03.0
last observation date used2024-03-02.0
computer nameMPCLINUX
JD of orbit computation2456670.726566
perihelion JD uncertainty (days)1.5703E-04
argument of perihelion uncertainty (°)3.9167E-05
ascending node uncertainty (°)2.1665E-05
inclination uncertainty (°)8.4103E-06
eccentricity uncertainty 4.6504E-08
perihelion distance uncertainty (AU)1.2742E-07
Minimum Orbit Intersection Distances (in AU)
for orbit epoch: 2460400.5, reference: E2024-E23
Mercury2.06099
Venus1.80209
Earth1.52428
Mars1.01728
Jupiter1.8539
Saturn5.86938
Uranus15.5248
Neptune26.668

Observations

518 total observations over interval: 1992 10 03.33255 – 2024 03 02.161149
These data are available for download (format description).

Date (UT) J2000 RA J2000 Dec Magn Location Ref
1992 10 03.33255 00 55 56.55 +06 57 40.6 19.7 V 691 – Steward Observatory, Kitt Peak-Spacewatch MPS 322213
1992 10 03.36144 00 55 55.15 +06 57 25.1   691 – Steward Observatory, Kitt Peak-Spacewatch MPS 322213
2000 05 05.249450 11 08 17.345 +02 09 53.05 21.29 V 645 – Apache Point-Sloan Digital Sky Survey MPS 322213
2000 05 05.252922 11 08 17.387 +02 09 54.04 22.27   645 – Apache Point-Sloan Digital Sky Survey MPS 322213
2005 03 03.33717 12 32 05.22 -08 42 33.8 20.6 V 691 – Steward Observatory, Kitt Peak-Spacewatch MPS 130287
2005 03 03.36321 12 32 04.41 -08 42 23.8 20.4 V 691 – Steward Observatory, Kitt Peak-Spacewatch MPS 130287
2005 03 03.39007 12 32 03.59 -08 42 14.0 20.8 V 691 – Steward Observatory, Kitt Peak-Spacewatch MPS 130287
2005 03 13.29770 12 26 24.49 -07 32 35.3 19.9   703 – Catalina Sky Survey MPS 129386
2005 03 13.30719 12 26 24.09 -07 32 30.0 19.9   703 – Catalina Sky Survey MPS 129386
2005 03 13.31669 12 26 23.72 -07 32 25.3 19.9   703 – Catalina Sky Survey MPS 129386
2005 03 13.32618 12 26 23.29 -07 32 21.6 19.5   703 – Catalina Sky Survey MPS 129386
2005 03 17.34011 12 23 43.48 -06 59 41.8 20.2 V 691 – Steward Observatory, Kitt Peak-Spacewatch MPS 129386
2005 03 17.36564 12 23 42.38 -06 59 28.8 20.0 V 691 – Steward Observatory, Kitt Peak-Spacewatch MPS 129386
2005 03 17.39090 12 23 41.30 -06 59 16.1 20.0 V 691 – Steward Observatory, Kitt Peak-Spacewatch MPS 129386
2006 05 08.43105 20 42 44.92 -04 08 33.3 21.0 V 691 – Steward Observatory, Kitt Peak-Spacewatch MPS 408713
2006 05 08.44603 20 42 45.60 -04 08 26.2 21.4 V 691 – Steward Observatory, Kitt Peak-Spacewatch MPS 408713
2006 05 08.46101 20 42 46.28 -04 08 18.7 21.2 V 691 – Steward Observatory, Kitt Peak-Spacewatch MPS 408713
2007 10 09.32522 03 00 38.10 +11 01 25.3 20.9 V 691 – Steward Observatory, Kitt Peak-Spacewatch MPS 322213
2007 10 09.34284 03 00 37.53 +11 01 17.7 21.0 V 691 – Steward Observatory, Kitt Peak-Spacewatch MPS 322213
2007 10 09.36048 03 00 36.93 +11 01 11.5 20.7 V 691 – Steward Observatory, Kitt Peak-Spacewatch MPS 322213
2007 11 03.26707 02 43 00.62 +08 13 52.1 20.3 V G96 – Mt. Lemmon Survey MPS 322213
2007 11 03.27846 02 43 00.08 +08 13 48.1 20.2 V G96 – Mt. Lemmon Survey MPS 322213
2007 11 03.28988 02 42 59.54 +08 13 43.1 20.2 V G96 – Mt. Lemmon Survey MPS 322213
2007 11 03.30140 02 42 58.96 +08 13 38.7 20.7 V G96 – Mt. Lemmon Survey MPS 322213
2010 01 13.110106 13 08 39.43 -11 28 05.7   C51 – WISE MPS 329130
2010 01 13.24241 13 08 45.96 -11 28 32.3   C51 – WISE MPS 329130
2010 01 13.440932 13 08 55.75 -11 29 11.8   C51 – WISE MPS 329130
2010 01 13.507148 13 08 58.97 -11 29 24.7   C51 – WISE MPS 329130
2010 01 13.573363 13 09 02.24 -11 29 38.1   C51 – WISE MPS 329130
2010 01 13.639453 13 09 05.47 -11 29 50.6   C51 – WISE MPS 329130
2010 01 13.705669 13 09 08.68 -11 30 03.4   C51 – WISE MPS 329130
2010 01 13.83797 13 09 15.16 -11 30 29.1   C51 – WISE MPS 329130
2010 01 13.970278 13 09 21.59 -11 30 55.1   C51 – WISE MPS 329130
2010 01 14.102709 13 09 28.03 -11 31 20.7   C51 – WISE MPS 329130
2010 03 18.30814 13 20 53.37 -09 37 21.9 20.2 V 691 – Steward Observatory, Kitt Peak-Spacewatch MPS 319531
2010 03 18.32582 13 20 52.80 -09 37 14.5 20.1 V 691 – Steward Observatory, Kitt Peak-Spacewatch MPS 319531
2010 03 18.34350 13 20 52.24 -09 37 06.3 20.3 V 691 – Steward Observatory, Kitt Peak-Spacewatch MPS 319531
2010 03 21.27583 13 19 17.90 -09 14 32.9 20.3 V 691 – Steward Observatory, Kitt Peak-Spacewatch MPS 319531
2010 03 21.29355 13 19 17.28 -09 14 24.3 20.3 V 691 – Steward Observatory, Kitt Peak-Spacewatch MPS 319531
2010 03 21.31126 13 19 16.66 -09 14 15.9 20.1 V 691 – Steward Observatory, Kitt Peak-Spacewatch MPS 319531
2010 03 21.36479 13 19 14.77 -09 13 50.6 19.8 V G96 – Mt. Lemmon Survey MPS 319531
2010 03 21.37181 13 19 14.52 -09 13 47.1 20.1 V G96 – Mt. Lemmon Survey MPS 319531
2010 03 21.38596 13 19 14.01 -09 13 40.4 20.0 V G96 – Mt. Lemmon Survey MPS 319531
2010 03 25.26915 13 16 56.17 -08 41 52.7 19.9 V 691 – Steward Observatory, Kitt Peak-Spacewatch MPS 320776
2010 03 25.28686 13 16 55.49 -08 41 43.8 20.3 V 691 – Steward Observatory, Kitt Peak-Spacewatch MPS 320777
2010 03 25.30455 13 16 54.83 -08 41 33.1 19.6 V 691 – Steward Observatory, Kitt Peak-Spacewatch MPS 320777
2010 04 02.91411 13 11 10.58 -07 25 13.1 19.4 V J75 – OAM Observatory, La Sagra MPS 320777
2010 04 02.92844 13 11 09.92 -07 25 04.3 19.9 V J75 – OAM Observatory, La Sagra MPS 320777
2010 04 02.94275 13 11 09.25 -07 24 56.4 19.0 V J75 – OAM Observatory, La Sagra MPS 320777
2010 04 07.36531 13 07 59.58 -06 43 41.9 19.4 C 704 – Lincoln Laboratory ETS, New Mexico MPS 320777
2010 04 07.38844 13 07 58.62 -06 43 26.5 19.2 C 704 – Lincoln Laboratory ETS, New Mexico MPS 320777
2010 04 07.40000 13 07 58.06 -06 43 20.9 18.8 C 704 – Lincoln Laboratory ETS, New Mexico MPS 320777
2010 04 10.29962 13 05 52.65 -06 16 01.0 19.4 V G96 – Mt. Lemmon Survey MPS 322363
2010 04 10.30252 13 05 52.51 -06 15 58.7 19.4 V 703 – Catalina Sky Survey MPS 322363
2010 04 10.30847 13 05 52.26 -06 15 55.8 19.4 V G96 – Mt. Lemmon Survey MPS 322363
2010 04 10.30887 13 05 52.18 -06 15 55.5 19.4 V 703 – Catalina Sky Survey MPS 322363
2010 04 10.31740 13 05 51.86 -06 15 50.8 19.5 V G96 – Mt. Lemmon Survey MPS 322363
2010 04 10.32153 13 05 51.64 -06 15 49.5 19.6 V 703 – Catalina Sky Survey MPS 322363
2010 04 10.32631 13 05 51.46 -06 15 45.9 19.6 V G96 – Mt. Lemmon Survey MPS 322363
2010 05 09.20708 12 49 00.30 -02 16 32.3 20.1 V G96 – Mt. Lemmon Survey MPS 326338
2010 05 09.21424 12 49 00.15 -02 16 29.4 19.9 V G96 – Mt. Lemmon Survey MPS 326338
2010 05 09.22138 12 48 59.97 -02 16 27.1 20.0 V G96 – Mt. Lemmon Survey MPS 326338
2010 05 09.22851 12 48 59.83 -02 16 24.1 20.2 V G96 – Mt. Lemmon Survey MPS 326338
2010 07 01.64043 13 02 26.74 -01 14 42.2   C51 – WISE MPS 344860
2010 07 01.77273 13 02 33.04 -01 15 08.9   C51 – WISE MPS 344860
2010 07 01.90504 13 02 39.31 -01 15 33.7   C51 – WISE MPS 344860
2010 07 02.037340 13 02 45.61 -01 15 59.6   C51 – WISE MPS 344860
2010 07 02.169644 13 02 51.96 -01 16 25.5   C51 – WISE MPS 344860
2010 07 02.235731 13 02 55.15 -01 16 39.2   C51 – WISE MPS 344860
2010 07 02.301948 13 02 58.32 -01 16 51.7   C51 – WISE MPS 344860
2010 07 02.368036 13 03 01.54 -01 17 04.9   C51 – WISE MPS 344860
2010 07 02.434251 13 03 04.69 -01 17 17.8   C51 – WISE MPS 344860
2010 07 02.500339 13 03 07.84 -01 17 31.1   C51 – WISE MPS 344860
2010 07 02.632644 13 03 14.30 -01 17 56.4   C51 – WISE MPS 344860
2010 07 02.764947 13 03 20.70 -01 18 23.5   C51 – WISE MPS 344860
2010 07 02.897250 13 03 27.14 -01 18 50.6   C51 – WISE MPS 344860
2010 07 03.029554 13 03 33.59 -01 19 16.3   C51 – WISE MPS 344860
2011 08 21.31748 21 17 55.897 +00 09 38.81 19.9 r F51 – Pan-STARRS 1, Haleakala MPS 388626
2011 08 21.32846 21 17 55.409 +00 09 33.80 19.8 r F51 – Pan-STARRS 1, Haleakala MPS 388626
2011 08 21.36460 21 17 53.808 +00 09 17.59 19.7 i F51 – Pan-STARRS 1, Haleakala MPS 388626
2011 08 21.37671 21 17 53.268 +00 09 12.12 19.7 i F51 – Pan-STARRS 1, Haleakala MPS 388626
2011 08 22.42676 21 17 08.792 +00 01 17.52 19.9 r F51 – Pan-STARRS 1, Haleakala MPS 390573
2011 08 22.45151 21 17 07.711 +00 01 06.31 19.9 r F51 – Pan-STARRS 1, Haleakala MPS 390573
2011 08 23.26648 21 16 33.81 -00 05 06.6 19.7   704 – Lincoln Laboratory ETS, New Mexico MPS 388626
2011 08 23.27947 21 16 33.27 -00 05 11.9 20.5   704 – Lincoln Laboratory ETS, New Mexico MPS 388626
2011 08 23.29234 21 16 32.67 -00 05 18.3 20.2   704 – Lincoln Laboratory ETS, New Mexico MPS 388626
2011 08 23.30524 21 16 32.15 -00 05 24.7 19.9   704 – Lincoln Laboratory ETS, New Mexico MPS 388626
2011 08 23.31814 21 16 31.53 -00 05 29.4 20.4   704 – Lincoln Laboratory ETS, New Mexico MPS 388626
2011 10 01.13058 21 03 22.37 -05 01 03.3 19.5 J W91 – VHS-VISTA, Cerro Paranal MPS 678480
2011 10 01.15114 21 03 22.47 -05 01 10.8 19.8 Y W91 – VHS-VISTA, Cerro Paranal MPS 678480
2012 10 17.42523 03 34 06.13 +10 57 57.1 20.6 V G96 – Mt. Lemmon Survey MPS 437771
2012 10 17.43165 03 34 05.88 +10 57 54.5 20.6 V G96 – Mt. Lemmon Survey MPS 437771
2012 10 17.43812 03 34 05.62 +10 57 52.0 20.6 V G96 – Mt. Lemmon Survey MPS 437771
